STARLINK-31917, 59669

Orbit data source: Space-Track

STARLINK-31917, 59669 is a payload satellite owned by SpaceX/Seattle (US) in LEO that was launched on Mon, 06 May 2024 UTC via an FALCON 9 launch vehicle from the Air Force Eastern Test Range (AFETR). Payload-class satellites include a variety of spacecraft equipped with specific instruments for various scientific and technological missions. These include communications satellites like Starlink; space stations such as the ISS; scientific satellites like the Hubble; Earth observation satellites from companies like Planet Labs, Umbra, and HawkEye 360; GPS; miniature CubeSats for education and research; and military/defense satellites.

Loading next visibility...
Identifier
59669, 2024-084R
Orbit
LEO
Country
Flag of USUS
Related business
Manufacturer
SpaceX/Seattle
Mission
Operational Commercial Communications
Bus & Motor
STARLINK V2M, Unknown motor
Mass
730 kg wet, ~700 kg dry
Launch date (UTC)
2024-05-06 (2 years ago)
Launch vehicle
FALCON 9
Launch site
Air Force Eastern Test Range (AFETR)
Object type
Payload
Rocket body
Debris
Shape & HBR
Box + 2 Pan, 17.7 m
Radar Cross Section
33.884 m², Large (>1 m²)

Expand to show TLE details & history
Last TLE update: 7 hours ago

TLE from 7 hours ago
0 STARLINK-31917
1 59669U 24084R   26073.53276071  .00004132  00000-0  15953-3 0  9998
2 59669  43.0081  14.4534 0001556 292.2061  67.8626 15.27597850105115
Epoch: 2026-03-14T12:47Z
TLE epoch observation values (Epoch: 2026-03-14T12:47:10.525Z)
Latitude
0.00001°
Longitude
10.50698°
Altitude
482.37 km
Speed
7.626 km/s
True Right ascension
00h 57m 48s
True Declination
0° 00' 00"
Sunlit
Object was in daylight at epoch
Visualization orbit readout
Latitude
Unknown
Longitude
Unknown
Altitude
Unknown
Speed
Unknown
Apparent Right ascension
Unknown
Apparent Declination
Unknown
Sunlit
N/A
Visualization observer readout
Local Sidereal Time
00:04:13
Azimuth
Unknown
Elevation
Unknown
Doppler factor
Unknown
Orbital elements
Apogee altitude
486.007 km
Perigee altitude
483.872 km
Semi-major axis
6,863.076 km
Eccentricity
0.00016
Inclination
43.0081°
RAAN
14.4534°
Arg. of periapsis
292.2061°
True anomaly
67.87912°
Mean anomaly
67.8626°
Eccentric anomaly
67.87086°
Mean motion
3.81738 °/min
Orbital period
94.31 mins
BSTAR
0.00015953
Loading maneuver chart data...
Computing Atmospheric mass density...
Loading historical data...
Loading historical data...
Loading historical data...
Loading historical data...
Loading historical data...
Loading historical data...
Loading historical data...

Documentation

Showing up to 5 results
|